User: anonymous   Login
Location: Mount Wilson Observatory
(34.2257°N, 118.0571°W)
Time: 16:40:12
(UTC-08:00)
Language:

ATLAS 3B CENTAUR R/B - Orbit

View from above orbital plane
View from above orbital plane
View from above satellite
View from above satellite

Ground track
Ground track

The orbit data is extracted from the following two-line orbital elements,

1 28118U 03057B   17051.41792412  .00059761  00000-0  90840-3 0  9991
2 28118  28.1160  75.5549 3132878 120.4220 274.2625  9.20978565278824
Epoch (UTC): 20 February 2017 10:01:48
Eccentricity: 0.3132878
inclination: 28.1160°
perigee height: 224 km
apogee height: 6248 km
right ascension of ascending node: 75.5549°
argument of perigee: 120.4220°
revolutions per day: 9.20978565
mean anomaly at epoch: 274.2625°
orbit number at epoch: 27882

The dashed part of the orbit path shows where the satellite is in the earth's shadow,  

DLR